Location: Newark
(40.9833°N, 0.0333°W)
Time: 20:16:48
(UTC+00:00)

Vanguard 2 Rocket - Pass Details

Date: 01 November 2020
Orbit: 553 x 3326 km, 32.9° (Epoch: 29 November)

Event Time Altitude Azimuth Distance (km) Brightness Sun altitude
Rises 18:54:58 0° 253° (WSW) 2,728 10.6 -23.0°
Reaches altitude 10° 18:57:18 10° 241° (WSW) 1,824 9.3 -23.4°
Enters shadow 19:00:41 28° 181° (S) 1,112 7.3 -24.1°
Maximum altitude 19:00:44 28° 180° (S) 1,113 - -24.1°
Drops below altitude 10° 19:04:49 10° 120° (ESE) 2,195 - -24.8°
Sets 19:07:56 0° 110° (ESE) 3,418 - -25.4°
